When you browse on this site, cookies collect data to enhance your experience and personalize the content and advertising you see.
Visit our Privacy Policy to learn more. By continuing to use the site, you agree to this use of cookies and data.
  • In Österreich
  • Länderverzeichnis
  • Für 7 Tage
  • Wassertemperatur
  • Wetterkarte
  • News
  • Widgets
  • user-avatar
    Anmelden

    Stündliche Wetter Wanparti

    Heute, 30 Mai, Samstag

    Zeit Temperatur Niederschläge Wind Luftdruck Luftfeuchtigkeit
    00:00 +38°C° 0 mm 4 m/S 720 mmHg 28%
    01:00 +37°C° 0 mm 5 m/S 720 mmHg 33%
    02:00 +38°C° 0 mm 7 m/S 720 mmHg 39%
    03:00 +36°C° 0 mm 6 m/S 720 mmHg 42%
    04:00 +35°C° 0 mm 6 m/S 720 mmHg 46%
    05:00 +34°C° 0 mm 6 m/S 720 mmHg 49%
    06:00 +35°C° 0 mm 6 m/S 721 mmHg 44%
    07:00 +37°C° 0 mm 5 m/S 721 mmHg 38%
    08:00 +39°C° 0 mm 5 m/S 722 mmHg 32%
    09:00 +41°C° 0 mm 4 m/S 721 mmHg 28%
    10:00 +43°C° 0 mm 4 m/S 721 mmHg 23%
    11:00 +44°C° 0 mm 4 m/S 721 mmHg 18%
    12:00 +45°C° 0 mm 3 m/S 720 mmHg 17%
    13:00 +45°C° 0 mm 2 m/S 720 mmHg 16%
    14:00 +45°C° 0 mm 1 m/S 719 mmHg 15%
    15:00 +44°C° 0 mm 1 m/S 719 mmHg 16%
    16:00 +43°C° 0 mm 1 m/S 718 mmHg 16%
    17:00 +43°C° 0 mm 1 m/S 718 mmHg 17%
    18:00 +42°C° 0 mm 2 m/S 719 mmHg 20%
    19:00 +40°C° 0 mm 2 m/S 719 mmHg 22%
    20:00 +39°C° 0 mm 3 m/S 719 mmHg 25%
    21:00 +38°C° 0.1 mm 4 m/S 720 mmHg 28%
    22:00 +39°C° 0.1 mm 5 m/S 721 mmHg 32%
    23:00 +38°C° 0.1 mm 6 m/S 721 mmHg 35%

    Morgen, 31 Mai, Sonntag

    Zeit Temperatur Niederschläge Wind Luftdruck Luftfeuchtigkeit
    00:00 +36°C° 0.7 mm 6 m/S 721 mmHg 39%
    01:00 +35°C° 0.7 mm 5 m/S 721 mmHg 43%
    02:00 +34°C° 0.7 mm 5 m/S 721 mmHg 47%
    03:00 +34°C° 1.2 mm 4 m/S 721 mmHg 52%
    04:00 +33°C° 1.2 mm 3 m/S 721 mmHg 56%
    05:00 +31°C° 1.2 mm 3 m/S 722 mmHg 61%
    06:00 +33°C° 0 mm 3 m/S 722 mmHg 60%
    07:00 +33°C° 0 mm 3 m/S 722 mmHg 58%
    08:00 +34°C° 0 mm 3 m/S 722 mmHg 57%
    09:00 +35°C° 0 mm 3 m/S 722 mmHg 51%
    10:00 +36°C° 0 mm 3 m/S 722 mmHg 45%
    11:00 +38°C° 0 mm 3 m/S 722 mmHg 40%
    12:00 +39°C° 0 mm 3 m/S 721 mmHg 36%
    13:00 +40°C° 0 mm 3 m/S 720 mmHg 32%
    14:00 +42°C° 0 mm 3 m/S 720 mmHg 27%
    15:00 +42°C° 0 mm 3 m/S 719 mmHg 27%
    16:00 +41°C° 0 mm 2 m/S 719 mmHg 27%
    17:00 +41°C° 0 mm 2 m/S 719 mmHg 26%
    18:00 +40°C° 0.2 mm 2 m/S 719 mmHg 29%
    19:00 +39°C° 0.2 mm 2 m/S 720 mmHg 31%
    20:00 +38°C° 0.2 mm 3 m/S 721 mmHg 33%
    21:00 +37°C° 0.5 mm 3 m/S 721 mmHg 35%
    22:00 +36°C° 0.5 mm 2 m/S 721 mmHg 38%
    23:00 +36°C° 0.5 mm 2 m/S 722 mmHg 40%

    übermorgen, 1 Juni, Montag

    Zeit Temperatur Niederschläge Wind Luftdruck Luftfeuchtigkeit
    00:00 +35°C° 0.6 mm 2 m/S 721 mmHg 42%
    01:00 +34°C° 0.6 mm 2 m/S 721 mmHg 44%
    02:00 +33°C° 0.6 mm 1 m/S 721 mmHg 47%
    03:00 +32°C° 0.1 mm 1 m/S 721 mmHg 48%
    04:00 +32°C° 0.1 mm 1 m/S 721 mmHg 50%
    05:00 +32°C° 0.1 mm 1 m/S 721 mmHg 51%
    06:00 +33°C° 0 mm 1 m/S 721 mmHg 48%
    07:00 +34°C° 0 mm 1 m/S 722 mmHg 44%
    08:00 +35°C° 0 mm 1 m/S 722 mmHg 41%
    09:00 +36°C° 0 mm 1 m/S 722 mmHg 37%
    10:00 +39°C° 0 mm 1 m/S 722 mmHg 34%
    11:00 +40°C° 0 mm 1 m/S 722 mmHg 30%
    12:00 +41°C° 0 mm 1 m/S 721 mmHg 27%
    13:00 +42°C° 0 mm 1 m/S 720 mmHg 25%
    14:00 +43°C° 0 mm 2 m/S 719 mmHg 22%
    15:00 +43°C° 0.1 mm 3 m/S 719 mmHg 25%
    16:00 +41°C° 0.1 mm 5 m/S 719 mmHg 28%
    17:00 +40°C° 0.1 mm 7 m/S 719 mmHg 31%
    18:00 +39°C° 0.7 mm 6 m/S 719 mmHg 34%
    19:00 +38°C° 0.7 mm 6 m/S 720 mmHg 37%
    20:00 +35°C° 0.7 mm 5 m/S 720 mmHg 40%
    21:00 +35°C° 1 mm 4 m/S 721 mmHg 42%
    22:00 +35°C° 1 mm 4 m/S 721 mmHg 43%
    23:00 +35°C° 1 mm 3 m/S 722 mmHg 44%

    2 Juni, Dienstag

    Zeit Temperatur Niederschläge Wind Luftdruck Luftfeuchtigkeit
    00:00 +33°C° 1.4 mm 3 m/S 722 mmHg 50%
    01:00 +31°C° 1.4 mm 3 m/S 721 mmHg 56%
    02:00 +30°C° 1.4 mm 4 m/S 721 mmHg 62%
    03:00 +29°C° 0.8 mm 4 m/S 721 mmHg 66%
    04:00 +29°C° 0.8 mm 4 m/S 721 mmHg 69%
    05:00 +28°C° 0.8 mm 5 m/S 721 mmHg 72%
    06:00 +29°C° 0 mm 4 m/S 722 mmHg 67%
    07:00 +30°C° 0 mm 3 m/S 722 mmHg 62%
    08:00 +31°C° 0 mm 2 m/S 722 mmHg 56%
    09:00 +34°C° 0 mm 2 m/S 722 mmHg 51%
    10:00 +34°C° 0 mm 1 m/S 722 mmHg 46%
    11:00 +36°C° 0 mm 1 m/S 722 mmHg 41%
    12:00 +37°C° 0 mm 1 m/S 721 mmHg 38%
    13:00 +37°C° 0 mm 1 m/S 721 mmHg 35%
    14:00 +39°C° 0 mm 2 m/S 720 mmHg 33%
    15:00 +39°C° 0 mm 2 m/S 720 mmHg 32%
    16:00 +39°C° 0 mm 2 m/S 719 mmHg 31%
    17:00 +40°C° 0 mm 2 m/S 719 mmHg 30%
    18:00 +39°C° 0 mm 2 m/S 720 mmHg 32%
    19:00 +38°C° 0 mm 2 m/S 720 mmHg 35%
    20:00 +38°C° 0 mm 2 m/S 721 mmHg 37%
    21:00 +37°C° 0.1 mm 3 m/S 721 mmHg 41%
    22:00 +36°C° 0.1 mm 4 m/S 721 mmHg 44%
    23:00 +34°C° 0.1 mm 5 m/S 721 mmHg 48%

    3 Juni, Mittwoch

    Zeit Temperatur Niederschläge Wind Luftdruck Luftfeuchtigkeit
    00:00 +33°C° 2.1 mm 4 m/S 721 mmHg 54%
    01:00 +32°C° 2.1 mm 4 m/S 721 mmHg 61%
    02:00 +29°C° 2.1 mm 3 m/S 720 mmHg 68%
    03:00 +29°C° 1.7 mm 3 m/S 720 mmHg 69%
    04:00 +29°C° 1.7 mm 3 m/S 720 mmHg 70%
    05:00 +28°C° 1.7 mm 3 m/S 720 mmHg 72%
    06:00 +29°C° 0 mm 3 m/S 721 mmHg 67%
    07:00 +30°C° 0 mm 3 m/S 721 mmHg 62%
    08:00 +31°C° 0 mm 3 m/S 722 mmHg 58%
    09:00 +33°C° 0 mm 3 m/S 722 mmHg 53%
    10:00 +34°C° 0 mm 3 m/S 722 mmHg 48%
    11:00 +35°C° 0 mm 3 m/S 721 mmHg 44%
    12:00 +36°C° 0 mm 3 m/S 721 mmHg 41%
    13:00 +36°C° 0 mm 3 m/S 720 mmHg 39%
    14:00 +37°C° 0 mm 3 m/S 720 mmHg 37%
    15:00 +37°C° 0 mm 2 m/S 719 mmHg 36%
    16:00 +37°C° 0 mm 2 m/S 719 mmHg 35%
    17:00 +38°C° 0 mm 2 m/S 719 mmHg 35%
    18:00 +36°C° 0.1 mm 3 m/S 719 mmHg 40%
    19:00 +35°C° 0.1 mm 4 m/S 720 mmHg 46%
    20:00 +33°C° 0.1 mm 5 m/S 720 mmHg 51%
    21:00 +33°C° 0 mm 4 m/S 720 mmHg 51%
    22:00 +34°C° 0 mm 4 m/S 721 mmHg 51%
    23:00 +34°C° 0 mm 3 m/S 721 mmHg 51%

    4 Juni, Donnerstag

    Zeit Temperatur Niederschläge Wind Luftdruck Luftfeuchtigkeit
    00:00 +33°C° 0 mm 3 m/S 721 mmHg 53%
    01:00 +33°C° 0 mm 3 m/S 720 mmHg 56%
    02:00 +31°C° 0 mm 3 m/S 720 mmHg 58%
    03:00 +31°C° 0 mm 3 m/S 720 mmHg 60%
    04:00 +30°C° 0 mm 3 m/S 720 mmHg 62%
    05:00 +30°C° 0 mm 3 m/S 720 mmHg 63%
    06:00 +31°C° 0 mm 3 m/S 721 mmHg 60%
    07:00 +32°C° 0 mm 4 m/S 721 mmHg 56%
    08:00 +33°C° 0 mm 4 m/S 722 mmHg 52%
    09:00 +34°C° 0 mm 5 m/S 721 mmHg 48%
    10:00 +36°C° 0 mm 5 m/S 721 mmHg 43%
    11:00 +38°C° 0 mm 6 m/S 721 mmHg 38%
    12:00 +39°C° 0 mm 6 m/S 720 mmHg 36%
    13:00 +40°C° 0 mm 6 m/S 720 mmHg 34%
    14:00 +40°C° 0 mm 6 m/S 719 mmHg 32%
    15:00 +40°C° 0.1 mm 6 m/S 719 mmHg 35%
    16:00 +39°C° 0.1 mm 6 m/S 719 mmHg 38%
    17:00 +38°C° 0.1 mm 7 m/S 719 mmHg 41%
    18:00 +36°C° 0.2 mm 6 m/S 719 mmHg 43%
    19:00 +35°C° 0.2 mm 5 m/S 720 mmHg 46%
    20:00 +35°C° 0.2 mm 5 m/S 721 mmHg 48%
    21:00 +34°C° 0 mm 5 m/S 721 mmHg 50%
    22:00 +33°C° 0 mm 5 m/S 721 mmHg 52%
    23:00 +33°C° 0 mm 5 m/S 721 mmHg 54%
    Mehr zeigen